| time (UTC) | temp F | wind direction | speed MPH | gust MPH | rain 1hr in | rain 24hr in | rain mn in | humidity % | barometer mb |
| 20260509030133 | 69 | 47 | 0.0 | 1.0 | 0.00 | 0.00 | 0.00 | 15 | 1013.5 |
| 20260509024622 | 70 | 38 | 0.0 | 2.0 | 0.00 | 0.00 | 0.00 | 14 | 1013.4 |
| 20260509023133 | 71 | 39 | 1.0 | 2.0 | 0.00 | 0.00 | 0.00 | 13 | 1013.1 |
| 20260509021626 | 73 | 49 | 0.0 | 0.0 | 0.00 | 0.00 | 0.00 | 12 | 1013.3 |
| 20260509020138 | 75 | 279 | 0.0 | 1.0 | 0.00 | 0.00 | 0.00 | 11 | 1013.1 |
| 20260509014630 | 79 | 279 | 1.0 | 4.0 | 0.00 | 0.00 | 0.00 | 9 | 1012.6 |
| 20260509013140 | 82 | 272 | 3.0 | 8.0 | 0.00 | 0.00 | 0.00 | 9 | 1012.5 |
| 20260509011629 | 83 | 277 | 5.0 | 10.0 | 0.00 | 0.00 | 0.00 | 9 | 1012.6 |
| 20260509010142 | 84 | 266 | 7.0 | 12.0 | 0.00 | 0.00 | 0.00 | 9 | 1012.6 |
| 20260509004631 | 85 | 312 | 8.0 | 15.0 | 0.00 | 0.00 | 0.00 | 9 | 1012.4 |
| 20260509003125 | 85 | 271 | 6.0 | 14.0 | 0.00 | 0.00 | 0.00 | 9 | 1012.6 |
| 20260509001654 | 85 | 304 | 8.0 | 15.0 | 0.00 | 0.00 | 0.00 | 9 | 1012.5 |
| 20260509000124 | 86 | 289 | 8.0 | 13.0 | 0.00 | 0.00 | 0.00 | 9 | 1012.3 |
| 20260508234638 | 86 | 282 | 7.0 | 14.0 | 0.00 | 0.00 | 0.00 | 9 | 1012.5 |
| 20260508233129 | 86 | 273 | 7.0 | 16.0 | 0.00 | 0.00 | 0.00 | 9 | 1012.5 |
| 20260508231624 | 86 | 305 | 5.0 | 13.0 | 0.00 | 0.00 | 0.00 | 9 | 1012.5 |
| 20260508230136 | 86 | 335 | 10.0 | 15.0 | 0.00 | 0.00 | 0.00 | 9 | 1012.5 |
| 20260508224632 | 86 | 305 | 7.0 | 14.0 | 0.00 | 0.00 | 0.00 | 9 | 1012.5 |
| 20260508223121 | 86 | 297 | 7.0 | 15.0 | 0.00 | 0.00 | 0.00 | 9 | 1012.8 |
| 20260508221631 | 86 | 303 | 9.0 | 16.0 | 0.00 | 0.00 | 0.00 | 9 | 1012.9 |
| 20260508220124 | 86 | 324 | 8.0 | 15.0 | 0.00 | 0.00 | 0.00 | 9 | 1012.9 |
| 20260508214638 | 86 | 278 | 11.0 | 17.0 | 0.00 | 0.00 | 0.00 | 9 | 1012.9 |
| 20260508213156 | 86 | 310 | 8.0 | 15.0 | 0.00 | 0.00 | 0.00 | 9 | 1013.0 |
| 20260508211627 | 85 | 317 | 8.0 | 13.0 | 0.00 | 0.00 | 0.00 | 9 | 1013.0 |
| 20260508210139 | 85 | 273 | 7.0 | 21.0 | 0.00 | 0.00 | 0.00 | 9 | 1013.1 |
| 20260508204634 | 86 | 300 | 12.0 | 23.0 | 0.00 | 0.00 | 0.00 | 9 | 1013.2 |
| 20260508203124 | 86 | 296 | 5.0 | 14.0 | 0.00 | 0.00 | 0.00 | 9 | 1013.5 |
| 20260508201638 | 86 | 290 | 5.0 | 16.0 | 0.00 | 0.00 | 0.00 | 9 | 1013.7 |
| 20260508200131 | 84 | 297 | 6.0 | 18.0 | 0.00 | 0.00 | 0.00 | 9 | 1013.9 |
| 20260508194646 | 84 | 322 | 6.0 | 11.0 | 0.00 | 0.00 | 0.00 | 9 | 1014.1 |
| 20260508193138 | 84 | 279 | 8.0 | 15.0 | 0.00 | 0.00 | 0.00 | 9 | 1014.4 |
| 20260508191629 | 83 | 306 | 4.0 | 13.0 | 0.00 | 0.00 | 0.00 | 9 | 1014.4 |
| 20260508190207 | 83 | 332 | 5.0 | 11.0 | 0.00 | 0.00 | 0.00 | 11 | 1014.9 |
| 20260508184635 | 82 | 247 | 7.0 | 11.0 | 0.00 | 0.00 | 0.00 | 12 | 1015.2 |
| 20260508183128 | 81 | 258 | 6.0 | 15.0 | 0.00 | 0.00 | 0.00 | 13 | 1015.5 |
| 20260508181639 | 81 | 269 | 5.0 | 12.0 | 0.00 | 0.00 | 0.00 | 13 | 1015.7 |
| 20260508180128 | 80 | 279 | 5.0 | 11.0 | 0.00 | 0.00 | 0.00 | 15 | 1015.9 |
| 20260508174622 | 79 | 298 | 2.0 | 7.0 | 0.00 | 0.00 | 0.00 | 17 | 1015.9 |
| 20260508173133 | 79 | 308 | 4.0 | 10.0 | 0.00 | 0.00 | 0.00 | 17 | 1016.2 |
| 20260508171626 | 79 | 259 | 4.0 | 10.0 | 0.00 | 0.00 | 0.00 | 16 | 1016.4 |
| 20260508170139 | 78 | 260 | 4.0 | 11.0 | 0.00 | 0.00 | 0.00 | 16 | 1016.4 |
| 20260508164633 | 77 | 303 | 5.0 | 8.0 | 0.00 | 0.00 | 0.00 | 19 | 1016.6 |
| 20260508163144 | 75 | 284 | 4.0 | 9.0 | 0.00 | 0.00 | 0.00 | 20 | 1016.7 |
| 20260508161636 | 74 | 317 | 2.0 | 9.0 | 0.00 | 0.00 | 0.00 | 20 | 1016.7 |
| 20260508160154 | 73 | 325 | 2.0 | 8.0 | 0.00 | 0.00 | 0.00 | 22 | 1016.9 |
| 20260508154625 | 72 | 308 | 4.0 | 7.0 | 0.00 | 0.00 | 0.00 | 23 | 1017.0 |
| 20260508153125 | 71 | 323 | 4.0 | 8.0 | 0.00 | 0.00 | 0.00 | 26 | 1017.0 |
| 20260508151638 | 70 | 293 | 4.0 | 8.0 | 0.00 | 0.00 | 0.00 | 26 | 1017.1 |
| 20260508150127 | 68 | 331 | 4.0 | 8.0 | 0.00 | 0.00 | 0.00 | 27 | 1017.1 |
| 20260508144623 | 67 | 312 | 5.0 | 9.0 | 0.00 | 0.00 | 0.00 | 27 | 1017.3 |
| 20260508143136 | 66 | 289 | 2.0 | 7.0 | 0.00 | 0.00 | 0.00 | 27 | 1017.3 |
| 20260508141631 | 64 | 314 | 3.0 | 4.0 | 0.00 | 0.00 | 0.00 | 28 | 1017.0 |
| 20260508140121 | 62 | 23 | 0.0 | 1.0 | 0.00 | 0.00 | 0.00 | 32 | 1016.9 |
| 20260508134631 | 61 | 61 | 0.0 | 2.0 | 0.00 | 0.00 | 0.00 | 33 | 1016.8 |
| 20260508133123 | 57 | 340 | 1.0 | 4.0 | 0.00 | 0.00 | 0.00 | 38 | 1016.8 |
| 20260508131633 | 54 | 2 | 3.0 | 5.0 | 0.00 | 0.00 | 0.00 | 41 | 1016.7 |
| 20260508130128 | 51 | 350 | 0.0 | 2.0 | 0.00 | 0.00 | 0.00 | 49 | 1016.7 |
| 20260508124639 | 49 | 316 | 0.0 | 3.0 | 0.00 | 0.00 | 0.00 | 50 | 1016.5 |
| 20260508123133 | 48 | 320 | 3.0 | 4.0 | 0.00 | 0.00 | 0.00 | 50 | 1016.3 |
| 20260508121623 | 47 | 336 | 2.0 | 4.0 | 0.00 | 0.00 | 0.00 | 52 | 1016.4 |
| 20260508120134 | 47 | 274 | 1.0 | 4.0 | 0.00 | 0.00 | 0.00 | 53 | 1016.3 |
| 20260508114628 | 45 | 21 | 4.0 | 7.0 | 0.00 | 0.00 | 0.00 | 56 | 1016.1 |
| 20260508113140 | 44 | 330 | 2.0 | 3.0 | 0.00 | 0.00 | 0.00 | 55 | 1016.1 |
| 20260508111636 | 43 | 334 | 3.0 | 4.0 | 0.00 | 0.00 | 0.00 | 53 | 1016.2 |
| 20260508110127 | 43 | 335 | 1.0 | 2.0 | 0.00 | 0.00 | 0.00 | 54 | 1016.1 |
| 20260508104621 | 42 | 351 | 0.0 | 2.0 | 0.00 | 0.00 | 0.00 | 54 | 1016.0 |
| 20260508103133 | 44 | 308 | 3.0 | 4.0 | 0.00 | 0.00 | 0.00 | 51 | 1016.1 |
| 20260508101641 | 45 | 92 | 0.0 | 1.0 | 0.00 | 0.00 | 0.00 | 50 | 1015.9 |
| 20260508100136 | 46 | 97 | 1.0 | 2.0 | 0.00 | 0.00 | 0.00 | 48 | 1015.9 |
| 20260508094625 | 46 | 35 | 0.0 | 0.0 | 0.00 | 0.00 | 0.00 | 48 | 1016.0 |
| 20260508093200 | 46 | 32 | 0.0 | 0.0 | 0.00 | 0.00 | 0.00 | 46 | 1016.1 |
| 20260508091630 | 47 | 337 | 0.0 | 1.0 | 0.00 | 0.00 | 0.00 | 44 | 1016.1 |
| 20260508090202 | 49 | 337 | 1.0 | 1.0 | 0.00 | 0.00 | 0.00 | 42 | 1016.2 |
| 20260508084656 | 50 | 355 | 0.0 | 1.0 | 0.00 | 0.00 | 0.00 | 42 | 1016.5 |
| 20260508083125 | 50 | 23 | 0.0 | 3.0 | 0.00 | 0.00 | 0.00 | 42 | 1016.6 |
| 20260508081638 | 47 | 21 | 2.0 | 3.0 | 0.00 | 0.00 | 0.00 | 46 | 1016.7 |
| 20260508080151 | 47 | 10 | 1.0 | 2.0 | 0.00 | 0.00 | 0.00 | 46 | 1016.7 |
| 20260508074641 | 48 | 1 | 0.0 | 1.0 | 0.00 | 0.00 | 0.00 | 44 | 1016.9 |
| 20260508073155 | 49 | 1 | 0.0 | 2.0 | 0.00 | 0.00 | 0.00 | 42 | 1016.8 |
| 20260508071645 | 48 | 7 | 0.0 | 2.0 | 0.00 | 0.00 | 0.00 | 44 | 1016.8 |
| 20260508070155 | 48 | 315 | 1.0 | 3.0 | 0.00 | 0.00 | 0.00 | 44 | 1016.8 |
| 20260508064649 | 50 | 28 | 0.0 | 0.0 | 0.00 | 0.00 | 0.00 | 40 | 1016.5 |
| 20260508063139 | 51 | 1 | 0.0 | 0.0 | 0.00 | 0.00 | 0.00 | 37 | 1016.6 |
| 20260508061635 | 52 | 265 | 0.0 | 0.0 | 0.00 | 0.00 | 0.00 | 37 | 1016.4 |
| 20260508060125 | 52 | 265 | 0.0 | 1.0 | 0.00 | 0.00 | 0.00 | 36 | 1016.4 |
| 20260508054656 | 55 | 162 | 0.0 | 0.0 | 0.00 | 0.00 | 0.00 | 32 | 1016.3 |
| 20260508053128 | 57 | 112 | 0.0 | 1.0 | 0.00 | 0.00 | 0.00 | 29 | 1016.4 |
| 20260508051639 | 59 | 112 | 0.0 | 1.0 | 0.00 | 0.00 | 0.00 | 27 | 1016.3 |
| 20260508050133 | 60 | 112 | 0.0 | 1.0 | 0.00 | 0.00 | 0.00 | 26 | 1016.4 |
| 20260508044621 | 58 | 151 | 1.0 | 2.0 | 0.00 | 0.00 | 0.00 | 28 | 1016.4 |
| 20260508043131 | 60 | 215 | 1.0 | 6.0 | 0.00 | 0.00 | 0.00 | 25 | 1016.5 |
| 20260508041625 | 61 | 77 | 0.0 | 1.0 | 0.00 | 0.00 | 0.00 | 24 | 1016.3 |
| 20260508040136 | 61 | 77 | 0.0 | 0.0 | 0.00 | 0.00 | 0.00 | 25 | 1016.2 |
| 20260508034629 | 61 | 77 | 0.0 | 0.0 | 0.00 | 0.00 | 0.00 | 24 | 1016.1 |
| 20260508033138 | 63 | 78 | 0.0 | 2.0 | 0.00 | 0.00 | 0.00 | 22 | 1015.9 |
| 20260508031650 | 64 | 106 | 0.0 | 1.0 | 0.00 | 0.00 | 0.00 | 21 | 1015.8 |